Terminal Aerodrome Forecast
Issued by NWS

Home | Current Version | Previous Version | Text Only | Print | Product List | Glossary On
Versions: 1 2 3 4 5 6 7 8 9 10 11 12 13 14 15 16 17 18 19 20 21 22 23 24 25 26 27 28 29 30 31 32 33 34 35 36 37 38 39 40 41 42 43 44 45 46 47 48 49 50
000
FTUS43 KMKX 220730 AAB
TAFUES
TAF AMD
KUES 220730Z 2208/2306 00000KT 1/4SM FG OVC003
     FM221400 00000KT 2SM BR BKN005
     FM221500 10003KT 4SM BR BKN006
     FM221700 11005KT P6SM SCT020
     FM230000 08004KT P6SM FEW030 SCT250
     FM230300 08003KT 3SM BR SCT004=

USA.gov is the U.S. government's official web portal to all federal, state and local government web resources and services.